sat.trackr.live / text

‹ back to catalog

M-SEL/CORTEZ

NORAD 63231 · 2025-052X

PAYLOAD ACTIVE UNKNOWN

§ Identity

Operator
Country
US
Launch date
2025-03-15
Launch site
AFWTR
Launch vehicle
Mass (kg)
RCS (m²)

External: N2YO · Heavens-Above · Gunter

§ Orbital elements

Epoch: 2026-05-25T02:51:19.852992Z

Period
94.38 min
Inclination
97.3949°
Eccentricity
0.0003534
Mean motion
15.25731485 rev/d
Perigee alt
486.2 km
Apogee alt
491.0 km
Semi-major
6,866.7 km
B*
2.9477e-4
RAAN
38.9102°
Arg perigee
211.6719°
Mean anomaly
148.4307°
Rev number
6,640

§ Raw data

M-SEL/CORTEZ1 63231U 25052X   26145.11897978  .00007448  00000+0  29477-3 0  99912 63231  97.3949  38.9102 0003534 211.6719 148.4307 15.25731485 66407

JSON: /api/v1/satellites/63231 · /tle

For live sub-satellite position, see the globe view (requires WebGL).

§ Visibility from observer

Set your observer location to see the next 7 days of passes ≥ 10°. The values pass through the URL so the page stays shareable.

No JS? Fill the form by hand. The geolocation button needs JavaScript.

§ Radio — SatNOGS DB

ModeDescriptionDownlinkUplink
DVB-S2 Mode C - DVB-S2/X - Transmitter 1 6.965 GHz
DVB-S2 Mode C - DVB-S2/X - Transmitter 1 4.920 GHz
DVB-S2 Mode L - DVB-S2/X - Transmitter 1 1.535 GHz
DVB-S2 Mode L - DVB-S2/X - Transmitter 2 1.552 GHz
DVB-S2 Mode S - DVB-S2/X - Transmitter 1 2.492 GHz
GFSK Mode U - GFSK38k4 400.500 MHz

6 transmitters · refreshed weekly from db.satnogs.org